Location: Bamobli
(6.6379°N, 10.9396°W)
Time: 13:56:30
(UTC+00:00)

H-2A R/B - Pass Details

Date: 07 June 2020
Orbit: 577 x 655 km, 98.5° (Epoch: 04 July)

Event Time Altitude Azimuth Distance (km) Brightness Sun altitude
Exits shadow 04:51:26 25° 318° (NW) 1,264 3.5 -22.5°
Drops below altitude 10° 04:53:28 10° 332° (NNW) 2,010 4.7 -22.0°
Sets 04:55:46 0° 338° (NNW) 2,929 5.6 -21.5°
